Regional Weather Roundup
Issued by NWS

Home | Current Version | Previous Version | Graphics & Text | Print | Product List | Glossary On
Versions: 1 2 3 4 5 6 7 8 9 10 11 12 13 14 15 16 17 18 19 20 21 22 23 24 25 26 27 28 29 30 31 32 33 34 35 36 37 38 39 40 41 42 43 44 45 46 47 48 49 50
271
ASUS43 KDMX 220601
RWRIA

WEATHER ROUNDUP FOR IOWA
NATIONAL WEATHER SERVICE DES MOINES IA
1200 AM CST WED NOV 22 2017

NOTE: "FAIR" INDICATES FEW OR NO CLOUDS BELOW 12,000 FEET WITH NO
SIGNIFICANT WEATHER AND/OR OBSTRUCTIONS TO VISIBILITY.

* - THESE STATIONS ARE NOT NWS STATIONS...THUS NOT UNDER NWS
QUALITY CONTROL.  THEY ALSO DO NOT REPORT WEATHER SUCH
AS PRECIPITATION OR FOG.

IAZ001>003-012>014-020>022-031>034-043>046-220700-
   NORTHWEST IOWA

CITY           SKY/WX    TMP DP  RH WIND       PRES   REMARKS
CARROLL *      CLOUDY    18  10  73 W8        30.37R WCI   7
CHEROKEE *     CLOUDY    15   9  76 SW3       30.40R
DENISON *      CLOUDY    18  10  73 CALM      30.40R
LE MARS *      CLOUDY    16   9  73 CALM      30.40R
ORANGE CITY *  CLOUDY    16  10  79 CALM      30.37R
SHELDON *      CLOUDY    12   7  79 NW5       30.36R WCI   4
SIOUX CITY     CLOUDY    16   9  74 W7        30.42R WCI   6
6HR MIN TEMP:  14; 6HR MAX TEMP:  24;

SPENCER        CLOUDY    10   6  84 NW7       30.37R WCI  -1
6HR MIN TEMP:  10; 6HR MAX TEMP:  22;

STORM LAKE *   CLOUDY    14   9  79 W10       30.36R WCI   1
$$

IAZ055>058-069>071-079>083-090>094-220700-
   SOUTHWEST IOWA

CITY           SKY/WX    TMP DP  RH WIND       PRES   REMARKS
ATLANTIC *     CLOUDY    19  12  73 NW8       30.40R WCI   9
AUDUBON *      CLOUDY    19  12  73 NW3       30.38R
CLARINDA *     CLOUDY    23  14  68 N9        30.42R WCI  13
COUNCIL BLFS * CLOUDY    21  10  63 NW5       30.41R WCI  15
CRESTON *      CLEAR     18  12  79 NW9       30.37R WCI   6
HARLAN  *      CLOUDY    18  10  73 N6        30.43R WCI   9
LAMONI         CLOUDY    21  12  68 N8        30.34S WCI  11
6HR MIN TEMP:  20; 6HR MAX TEMP:  30;

RED OAK *      CLOUDY    21  12  68 NW12      30.41R WCI   9
SHENANDOAH *   CLOUDY    21  14  73 CALM      30.43R
$$

IAZ047>049-059>061-072>074-084-220700-
   CENTRAL IOWA

CITY           SKY/WX    TMP DP  RH WIND       PRES   REMARKS
AMES           CLOUDY    22  12  65 NW10      30.36R WCI  11
6HR MIN TEMP:  22; 6HR MAX TEMP:  28;

ANKENY *       CLOUDY    23  12  63 NW8       30.37S WCI  14
BOONE *        CLOUDY    21  10  63 NW13      30.35R WCI   9
CHARITON *     CLOUDY    21  14  73 NW6       30.34S WCI  14
DES MOINES     CLOUDY    23  12  62 NW8       30.36S WCI  14
6HR MIN TEMP:  22; 6HR MAX TEMP:  31;

GRINNELL*      CLOUDY    19  14  81 NW7       30.34R WCI  10
KNOXVILLE *    CLOUDY    23  10  58 NW8       30.34S WCI  14
MARSHALLTOWN   CLOUDY    20  13  74 NW9       30.33R WCI   9
6HR MIN TEMP:  20; 6HR MAX TEMP:  26;

NEWTON *       CLOUDY    21  12  68 NW8       30.34S WCI  12
PELLA *        CLOUDY    22  13  70 NW6       30.36R WCI  14
PERRY *          N/A     18  10  72 NW5       30.38R WCI  11
$$

IAZ004>006-015-016-023>025-035-036-220700-
   NORTH CENTRAL IOWA

CITY           SKY/WX    TMP DP  RH WIND       PRES   REMARKS
ALGONA *       CLOUDY    18  12  79 NW8       30.35R WCI   7
CLARION *      CLOUDY    18  12  79 N5        30.34R WCI  11
ESTHERVILLE    CLOUDY    13   8  81 NW7       30.35R WCI   3
6HR MIN TEMP:  13; 6HR MAX TEMP:  22;

FORT DODGE *   CLOUDY    18  11  74 CALM      30.37R
MASON CITY     CLOUDY    18  10  71 NW12      30.34R WCI   5
6HR MIN TEMP:  18; 6HR MAX TEMP:  23;

FOREST CITY *    N/A     21  12  68 NW7       30.33R WCI  13
WEBSTER CITY * CLOUDY    18  10  73 NW9       30.33R WCI   6
IOWA FALLS *     N/A     21  13  72 NW12      30.33R WCI   9
$$

IAZ007>011-017>019-026>030-037>042-050>054-066-220700-
   NORTHEAST IOWA

CITY           SKY/WX    TMP DP  RH WIND       PRES   REMARKS
CEDAR RAPIDS   CLOUDY    18  14  84 NW6       30.30R WCI  10
6HR MIN TEMP:  15; 6HR MAX TEMP:  27;

CHARLES CITY * CLOUDY    19  12  73 NW10      30.31R WCI   8
CLINTON *      CLEAR     19  14  81 NW8       30.29R WCI   9
DECORAH *      CLOUDY    19  12  73 CALM      30.27S
DUBUQUE        CLEAR     21  13  71 NW5       30.27R WCI  15
6HR MIN TEMP:  19; 6HR MAX TEMP:  27;

MONTICELLO *   CLEAR     19  14  79 CALM      30.29S
OELWEIN *      CLOUDY    19  16  86 NW10      30.30S WCI   8
WATERLOO       CLOUDY    19  12  74 NW9       30.32S WCI   8
6HR MIN TEMP:  18; 6HR MAX TEMP:  25;

$$

IAZ064-065-067-068-078-220700-
   EAST CENTRAL IOWA

CITY           SKY/WX    TMP DP  RH WIND       PRES   REMARKS
DAVENPORT      CLEAR     21  16  81 W7        30.32R WCI  12
6HR MIN TEMP:  20; 6HR MAX TEMP:  29;

IOWA CITY      CLOUDY    24  15  68 NW9       30.33S WCI  14
6HR MIN TEMP:  23; 6HR MAX TEMP:  31;

MT. PLEASANT * CLOUDY    23  15  70 NW10      30.32S WCI  12
MUSCATINE *    CLOUDY    23  16  74 NW7       30.33S WCI  15
QUAD CITIES    CLEAR     24  16  71 NW8       30.30R WCI  15
6HR MIN TEMP:  24; 6HR MAX TEMP:  32;

$$

IAZ062-063-075>077-085>089-095>099-220700-
   SOUTHEAST IOWA

CITY           SKY/WX    TMP DP  RH WIND       PRES   REMARKS
BURLINGTON     CLEAR     24  17  74 NW8       30.31R WCI  15
6HR MIN TEMP:  24; 6HR MAX TEMP:  31;

FAIRFIELD *    CLOUDY    21  12  68 NW7       30.32R WCI  13
FORT MADISON * CLEAR     23  16  74 NW8       30.32S WCI  14
KEOKUK *       CLEAR     25  16  68 NW7       30.32R WCI  17
OSKALOOSA *      N/A     20  15  80 NW7       30.34R WCI  11
OTTUMWA        CLOUDY    20  13  74 NW9       30.34R WCI   9
6HR MIN TEMP:  20; 6HR MAX TEMP:  29;

WASHINGTON *   CLOUDY    21  16  79 NW7       30.33S WCI  13
$$

ABBREVIATIONS USED IN REMARKS
   TC - TEMPERATURES IN CELSIUS
  WCI - WIND CHILL INDEX
   HX - HEAT INDEX
  VSB - VISIBILITY
$$





USA.gov is the U.S. government's official web portal to all federal, state and local government web resources and services.